Regional Weather Roundup
Issued by NWS Sioux Falls, SD

Home | Current Version | Previous Version | Text Only | Print | Product List | Glossary On
Versions: 1 2 3 4 5 6 7 8 9 10 11 12 13 14 15 16 17 18 19 20 21 22 23 24 25 26 27 28 29 30 31 32 33 34 35 36 37 38 39 40 41 42 43 44 45 46 47 48 49 50
000
ASUS43 KFSD 170710
RWRFSD

WEATHER ROUNDUP FOR SE SOUTH DAKOTA/SW MINNESOTA/NW IOWA
NATIONAL WEATHER SERVICE SIOUX FALLS SD
100 AM CST SUN DEC 17 2017

NOTE: "FAIR" INDICATES FEW OR NO CLOUDS BELOW 12,000 FEET WITH NO
SIGNIFICANT WEATHER AND OR OBSTRUCTIONS TO VISIBILITY.


SDZ038>040-050-052>070-170800-
SOUTHEAST SOUTH DAKOTA

CITY           SKY/WX    TMP DP  RH WIND       PRES   REMARKS
BROOKINGS      CLOUDY    28  26  92 NW5       30.05S FOG     WCI  23
CHAMBERLAIN    PTCLDY    33  31  95 CALM      30.07S
HURON          CLOUDY    30  29  96 NE3       30.06F FOG
MADISON        PTSUNNY   30  30 100 NE3       30.05F
MITCHELL       CLOUDY    30  29  96 E5        30.08S WCI  25
SIOUX FALLS    PTCLDY    27  26  96 N5        30.07R WCI  22
WINNER         FAIR      32  29  88 CALM      30.06F
YANKTON        CLOUDY    28  27  96 N9        30.05F WCI  19
$$

MNZ071-072-080-081-089-090-097-098-170800-
SOUTHWEST MINNESOTA

CITY           SKY/WX    TMP DP  RH WIND       PRES   REMARKS
FAIRMONT       CLOUDY    27  25  92 NE7       30.06S FOG     WCI  19
JACKSON        FOG       27  27 100 NE6       30.05R VSB 1/2 WCI  20
LUVERNE        CLOUDY    27  23  86 N3        30.07R
MARSHALL       CLOUDY    21  20  96 N5        30.07F FOG     WCI  15
MONTEVIDEO     CLOUDY    27  25  93 CALM      30.08F FOG
PIPESTONE      CLOUDY    25  25 100 CALM      30.04S FOG
REDWOOD FALLS  CLOUDY    27  25  92 N3        30.07F
TRACY          CLOUDY    25  25 100 CALM      30.07S FOG
WINDOM           N/A     27  16  63 NE6       30.06R HAZE    WCI  20
WORTHINGTON    SNOW      24  23  96 NE12      30.06R VSB 1/2 WCI  13
$$

IAZ001>003-012>014-020>022-031-032-NEZ013-014-SDZ071-170800-
NORTHWEST IOWA

CITY           SKY/WX    TMP DP  RH WIND       PRES   REMARKS
CHEROKEE       CLOUDY    27  26  96 NE5       30.03S WCI  22
ESTHERVILLE    FOG       26  26 100 NE9       30.04S VSB 3/4 WCI  17
LE MARS        CLOUDY    25  25 100 CALM      30.04S
ORANGE CITY    CLOUDY    28  27  93 N6        30.03S WCI  22
SHELDON        CLOUDY    23  23 100 N10       30.03F FOG     WCI  12
SIOUX CITY     CLOUDY    28  26  92 N9        30.02F WCI  19
SPENCER        FOG       26  25  96 NE12      30.04S VSB 3/4 WCI  16
STORM LAKE     CLOUDY    27  25  93 NE13      30.00F FOG     WCI  16
$$

ABBREVIATIONS USED IN REMARKS
   TC - TEMPERATURE IN CELSIUS
  WCI - WIND CHILL INDEX
   HX - HEAT INDEX
  VSB - VISIBILITY




USA.gov is the U.S. government's official web portal to all federal, state and local government web resources and services.